• In Russia
  • List of Countries
  • For 7 days
  • Water Temperature
  • Satellite Maps
  • Weather Map
  • Weather Widgets
  • user-avatar
    Login

    Hourly Weather Sankt Polten

    Today, 9 December, Friday

    Time Temperature Precipitation Wind Pressure Humidity
    00:00 +3°C° 0 mm 2 mps 746 mmHg 45%
    01:00 +3°C° 0 mm 2 mps 745 mmHg 44%
    02:00 +2°C° 0 mm 3 mps 745 mmHg 45%
    03:00 +2°C° 0 mm 3 mps 745 mmHg 46%
    04:00 +2°C° 0 mm 3 mps 745 mmHg 47%
    05:00 +2°C° 0 mm 3 mps 745 mmHg 48%
    06:00 +1°C° 0 mm 3 mps 745 mmHg 48%
    07:00 +1°C° 0 mm 3 mps 745 mmHg 49%
    08:00 +2°C° 0 mm 3 mps 745 mmHg 48%
    09:00 +4°C° 0 mm 3 mps 745 mmHg 46%
    10:00 +5°C° 0 mm 3 mps 745 mmHg 44%
    11:00 +7°C° 0 mm 3 mps 745 mmHg 44%
    12:00 +8°C° 0 mm 3 mps 745 mmHg 44%
    13:00 +8°C° 0 mm 3 mps 745 mmHg 44%
    14:00 +7°C° 0 mm 3 mps 745 mmHg 48%
    15:00 +4°C° 0 mm 3 mps 745 mmHg 52%
    16:00 +3°C° 0 mm 3 mps 744 mmHg 56%
    17:00 +3°C° 0 mm 3 mps 745 mmHg 58%
    18:00 +2°C° 0 mm 3 mps 745 mmHg 59%
    19:00 +2°C° 0 mm 3 mps 745 mmHg 60%
    20:00 +3°C° 0 mm 2 mps 745 mmHg 61%
    21:00 +3°C° 0 mm 2 mps 745 mmHg 62%
    22:00 +3°C° 0 mm 2 mps 745 mmHg 62%
    23:00 +3°C° 0 mm 2 mps 745 mmHg 63%

    Tomorrow, 10 December, Saturday

    Time Temperature Precipitation Wind Pressure Humidity
    00:00 +3°C° 0 mm 2 mps 745 mmHg 65%
    01:00 +3°C° 0 mm 2 mps 744 mmHg 66%
    02:00 +3°C° 0 mm 2 mps 744 mmHg 67%
    03:00 +3°C° 0 mm 2 mps 744 mmHg 68%
    04:00 +3°C° 0 mm 2 mps 743 mmHg 69%
    05:00 +3°C° 0 mm 2 mps 743 mmHg 69%
    06:00 +3°C° 0 mm 2 mps 743 mmHg 69%
    07:00 +3°C° 0 mm 2 mps 743 mmHg 70%
    08:00 +5°C° 0 mm 2 mps 743 mmHg 67%
    09:00 +6°C° 0 mm 2 mps 743 mmHg 65%
    10:00 +8°C° 0 mm 1 mps 743 mmHg 62%
    11:00 +10°C° 0 mm 1 mps 742 mmHg 61%
    12:00 +11°C° 0 mm 1 mps 742 mmHg 61%
    13:00 +12°C° 0 mm 1 mps 742 mmHg 60%
    14:00 +9°C° 0 mm 2 mps 741 mmHg 63%
    15:00 +7°C° 0 mm 2 mps 741 mmHg 67%
    16:00 +6°C° 0 mm 2 mps 741 mmHg 71%
    17:00 +5°C° 0 mm 2 mps 741 mmHg 69%
    18:00 +5°C° 0 mm 2 mps 741 mmHg 67%
    19:00 +5°C° 0 mm 2 mps 740 mmHg 65%
    20:00 +5°C° 0 mm 2 mps 740 mmHg 64%
    21:00 +4°C° 0 mm 2 mps 740 mmHg 63%
    22:00 +4°C° 0 mm 2 mps 740 mmHg 62%
    23:00 +4°C° 0 mm 2 mps 740 mmHg 60%

    Day after tomorrow, 11 December, Sunday

    Time Temperature Precipitation Wind Pressure Humidity
    00:00 +4°C° 0 mm 2 mps 740 mmHg 59%
    01:00 +4°C° 0 mm 2 mps 739 mmHg 58%
    02:00 +4°C° 0 mm 2 mps 739 mmHg 58%
    03:00 +3°C° 0 mm 2 mps 738 mmHg 59%
    04:00 +3°C° 0 mm 2 mps 738 mmHg 59%
    05:00 +3°C° 0 mm 2 mps 737 mmHg 58%
    06:00 +2°C° 0 mm 3 mps 737 mmHg 57%
    07:00 +2°C° 0 mm 3 mps 737 mmHg 55%
    08:00 +3°C° 0 mm 3 mps 737 mmHg 54%
    09:00 +4°C° 0 mm 4 mps 738 mmHg 53%
    10:00 +5°C° 0 mm 4 mps 738 mmHg 52%
    11:00 +6°C° 0.1 mm 5 mps 737 mmHg 58%
    12:00 +6°C° 0.1 mm 5 mps 737 mmHg 64%
    13:00 +6°C° 0.1 mm 5 mps 737 mmHg 70%
    14:00 +5°C° 0.1 mm 5 mps 737 mmHg 77%
    15:00 +5°C° 0.1 mm 4 mps 737 mmHg 83%
    16:00 +4°C° 0.1 mm 4 mps 737 mmHg 89%
    17:00 +4°C° 0.1 mm 3 mps 738 mmHg 90%
    18:00 +4°C° 0.1 mm 3 mps 738 mmHg 91%
    19:00 +4°C° 0.1 mm 3 mps 738 mmHg 92%
    20:00 +4°C° 0 mm 3 mps 738 mmHg 92%
    21:00 +3°C° 0 mm 3 mps 739 mmHg 92%
    22:00 +3°C° 0 mm 3 mps 739 mmHg 92%
    23:00 +3°C° 0 mm 3 mps 739 mmHg 92%

    12 December, Monday

    Time Temperature Precipitation Wind Pressure Humidity
    00:00 +3°C° 0 mm 3 mps 739 mmHg 92%
    01:00 +3°C° 0 mm 3 mps 739 mmHg 92%
    02:00 +3°C° 0 mm 3 mps 738 mmHg 92%
    03:00 +2°C° 0 mm 3 mps 738 mmHg 93%
    04:00 +2°C° 0 mm 3 mps 738 mmHg 93%
    05:00 +2°C° 0 mm 3 mps 738 mmHg 93%
    06:00 +2°C° 0 mm 3 mps 739 mmHg 93%
    07:00 +1°C° 0 mm 4 mps 739 mmHg 93%
    08:00 +1°C° 0 mm 4 mps 739 mmHg 90%
    09:00 +3°C° 0 mm 4 mps 740 mmHg 87%
    10:00 +3°C° 0 mm 4 mps 740 mmHg 85%
    11:00 +4°C° 0 mm 4 mps 740 mmHg 83%
    12:00 +4°C° 0 mm 4 mps 740 mmHg 81%
    13:00 +5°C° 0 mm 4 mps 739 mmHg 79%
    14:00 +4°C° 0 mm 4 mps 739 mmHg 83%
    15:00 +3°C° 0 mm 4 mps 739 mmHg 86%
    16:00 +3°C° 0 mm 3 mps 739 mmHg 89%
    17:00 +2°C° 0 mm 3 mps 740 mmHg 90%
    18:00 +2°C° 0 mm 3 mps 740 mmHg 91%
    19:00 +2°C° 0 mm 2 mps 740 mmHg 92%
    20:00 +2°C° 0 mm 2 mps 740 mmHg 92%
    21:00 +2°C° 0 mm 2 mps 740 mmHg 92%
    22:00 +2°C° 0 mm 2 mps 740 mmHg 92%
    23:00 +2°C° 0 mm 2 mps 740 mmHg 92%

    13 December, Tuesday

    Time Temperature Precipitation Wind Pressure Humidity
    00:00 +2°C° 0 mm 2 mps 740 mmHg 92%
    01:00 +1°C° 0 mm 2 mps 740 mmHg 92%
    02:00 +1°C° 0 mm 2 mps 740 mmHg 92%
    03:00 +1°C° 0 mm 2 mps 740 mmHg 92%
    04:00 +1°C° 0 mm 2 mps 740 mmHg 92%
    05:00 +1°C° 0 mm 2 mps 740 mmHg 92%
    06:00 +1°C° 0 mm 2 mps 740 mmHg 92%
    07:00 +1°C° 0 mm 2 mps 741 mmHg 91%
    08:00 +2°C° 0 mm 2 mps 741 mmHg 88%
    09:00 +3°C° 0 mm 2 mps 741 mmHg 84%
    10:00 +4°C° 0 mm 2 mps 741 mmHg 80%
    11:00 +5°C° 0 mm 2 mps 741 mmHg 78%
    12:00 +5°C° 0 mm 3 mps 741 mmHg 76%
    13:00 +5°C° 0 mm 3 mps 741 mmHg 74%
    14:00 +5°C° 0 mm 2 mps 741 mmHg 80%
    15:00 +4°C° 0 mm 2 mps 741 mmHg 86%
    16:00 +3°C° 0 mm 2 mps 741 mmHg 92%
    17:00 +2°C° 0 mm 2 mps 741 mmHg 92%
    18:00 +2°C° 0 mm 2 mps 741 mmHg 92%
    19:00 +2°C° 0 mm 2 mps 741 mmHg 92%
    20:00 +3°C° 0 mm 1 mps 741 mmHg 92%
    21:00 +3°C° 0 mm 1 mps 741 mmHg 92%
    22:00 +3°C° 0 mm 1 mps 741 mmHg 92%
    23:00 +2°C° 0 mm 1 mps 741 mmHg 92%

    14 December, Wednesday

    Time Temperature Precipitation Wind Pressure Humidity
    00:00 +2°C° 0 mm 1 mps 741 mmHg 92%
    01:00 +2°C° 0 mm 1 mps 741 mmHg 92%
    02:00 +2°C° 0 mm 1 mps 741 mmHg 91%
    03:00 +3°C° 0 mm 1 mps 741 mmHg 90%
    04:00 +3°C° 0 mm 1 mps 741 mmHg 89%
    05:00 +3°C° 0.1 mm 1 mps 741 mmHg 88%
    06:00 +3°C° 0.1 mm 1 mps 741 mmHg 87%
    07:00 +3°C° 0.1 mm 1 mps 741 mmHg 86%
    08:00 +4°C° 0.2 mm 1 mps 742 mmHg 83%
    09:00 +5°C° 0.2 mm 1 mps 742 mmHg 81%
    10:00 +6°C° 0.2 mm 1 mps 742 mmHg 78%
    11:00 +6°C° 0.1 mm 1 mps 742 mmHg 78%
    12:00 +7°C° 0.1 mm 1 mps 742 mmHg 78%
    13:00 +7°C° 0.1 mm 1 mps 742 mmHg 77%
    14:00 +6°C° 0.1 mm 1 mps 742 mmHg 82%
    15:00 +5°C° 0.1 mm 1 mps 743 mmHg 86%
    16:00 +4°C° 0.1 mm 1 mps 743 mmHg 91%
    17:00 +4°C° 0 mm 1 mps 743 mmHg 91%
    18:00 +4°C° 0 mm 1 mps 743 mmHg 92%
    19:00 +4°C° 0 mm 1 mps 744 mmHg 92%
    20:00 +4°C° 0 mm 1 mps 744 mmHg 92%
    21:00 +4°C° 0 mm 1 mps 745 mmHg 91%
    22:00 +4°C° 0 mm 1 mps 745 mmHg 91%
    23:00 +3°C° 0 mm 1 mps 745 mmHg 91%
    Show more